Newport, RI

12:34 AM EDT on April 27, 2017 (GMT -0400)
Newport State

Weather History for KUUU - December, 2011

Change the Weather History Date:

Thursday, December 15, 2011

  Actual Average Record
Temperature  
Mean Temperature 46 °F -  
Max Temperature 54 °F 43 °F 61 °F (2015)
Min Temperature 39 °F 29 °F 12 °F (1980)
Degree Days  
Heating Degree Days 18    
Moisture  
Dew Point 43 °F    
Average Humidity 77    
Maximum Humidity 89    
Minimum Humidity 66    
Precipitation  
Precipitation 0.02 in - - ()
Sea Level Pressure  
Sea Level Pressure 30.06 in    
Wind  
Wind Speed 10 mph (South)    
Max Wind Speed 16 mph    
Max Gust Speed 32 mph    
Visibility 9 miles    
Events Rain    
Averages and records for this station are not official NWS values.
T = Trace of Precipitation, MM = Missing Value Source: NWS Daily Summary

Daily Weather History Graph

Daily Weather History Graph

Search for Another Location

Airport or City:

Trip Planner

Search our weather history database for the weather conditions in past years. The results will help you decide how hot, cold, wet, or windy it might be!

Date:

Astronomy

Dec. 15, 2011 Rise Set
Actual Time 7:04 AM EST 4:15 PM EST
Civil Twilight 6:32 AM EST 4:47 PM EST
Nautical Twilight 5:58 AM EST 5:22 PM EST
Astronomical Twilight 5:24 AM EST 5:55 PM EST
Moon 9:42 PM EST (12/15) 10:16 AM EST (12/15)
Length of Visible Light 10h 14m
Length of Day
9h 11m
Waning Gibbous, 75% of the Moon is Illuminated
Dec 15
Waning Gibbous
Dec 17
Last Quarter
Dec 24
New
Jan 1
First Quarter
Jan 9
Full

Hourly Weather History & Observations

Time (EST) Temp. Windchill Dew Point Humidity Pressure Visibility Wind Dir Wind Speed Gust Speed Precip Events Conditions
12:53 AM 39.9 °F 35.1 °F 30.9 °F 70% 30.33 in 10.0 mi SE 6.9 mph - N/A   Scattered Clouds
1:53 AM 41.0 °F 35.8 °F 32.0 °F 70% 30.32 in 10.0 mi SSE 8.1 mph - N/A   Overcast
2:53 AM 42.1 °F 37.1 °F 33.1 °F 70% 30.31 in 10.0 mi SSE 8.1 mph - N/A   Overcast
3:53 AM 43.0 °F 38.2 °F 34.0 °F 71% 30.27 in 10.0 mi SSE 8.1 mph - N/A   Overcast
4:06 AM 42.8 °F 37.0 °F 35.6 °F 76% 30.25 in 10.0 mi SSE 10.4 mph - N/A   Overcast
4:27 AM 44.6 °F 39.7 °F 33.8 °F 66% 30.25 in 10.0 mi South 9.2 mph - N/A   Overcast
4:53 AM 44.1 °F 39.5 °F 35.1 °F 71% 30.26 in 10.0 mi SSE 8.1 mph - N/A   Overcast
5:53 AM 45.0 °F 40.1 °F 36.0 °F 71% 30.25 in 10.0 mi South 9.2 mph - N/A   Overcast
6:08 AM 44.6 °F 38.8 °F 37.4 °F 76% 30.25 in 10.0 mi South 11.5 mph - N/A   Overcast
6:53 AM 46.0 °F 39.9 °F 37.9 °F 73% 30.24 in 10.0 mi South 13.8 mph 19.6 mph N/A   Overcast
7:53 AM 46.9 °F - 41.0 °F 80% 30.20 in 10.0 mi South 15.0 mph 20.7 mph 0.00 in Rain Light Rain
9:29 AM 50.0 °F - 44.6 °F 82% 30.17 in 10.0 mi South 13.8 mph 21.9 mph N/A   Overcast
9:53 AM 52.0 °F - 43.0 °F 71% 30.17 in 10.0 mi South 10.4 mph 19.6 mph N/A   Overcast
10:53 AM 53.1 °F - 45.0 °F 74% 30.10 in 10.0 mi SSW 13.8 mph 21.9 mph N/A   Overcast
11:53 AM 53.1 °F - 46.0 °F 77% 30.04 in 10.0 mi South 16.1 mph 28.8 mph N/A   Overcast
12:53 PM 53.1 °F - 46.0 °F 77% 30.00 in 10.0 mi SSW 10.4 mph 27.6 mph N/A   Overcast
1:53 PM 54.0 °F - 46.0 °F 75% 29.97 in 10.0 mi SSW 12.7 mph 23.0 mph N/A   Overcast
2:53 PM 54.0 °F - 46.0 °F 75% 29.95 in 10.0 mi SSW 15.0 mph 27.6 mph N/A   Overcast
3:53 PM 54.0 °F - 46.0 °F 75% 29.90 in 10.0 mi SSW 15.0 mph 25.3 mph N/A   Scattered Clouds
4:53 PM 54.0 °F - 46.0 °F 75% 29.87 in 10.0 mi SSW 13.8 mph 23.0 mph N/A   Clear
5:53 PM 54.0 °F - 48.0 °F 80% 29.85 in 10.0 mi SSW 15.0 mph 32.2 mph N/A   Clear
6:53 PM 54.0 °F - 48.0 °F 80% 29.82 in 10.0 mi SSW 12.7 mph 31.1 mph N/A   Overcast
7:51 PM 53.6 °F - 50.0 °F 88% 29.82 in 5.0 mi SSW 10.4 mph 26.5 mph 0.01 in Rain Light Rain
7:53 PM 53.1 °F - 50.0 °F 89% 29.82 in 5.0 mi SSW 10.4 mph 23.0 mph 0.01 in Rain Light Rain
8:49 PM 53.6 °F - 50.0 °F 88% 29.81 in 5.0 mi SSW 13.8 mph 24.2 mph 0.01 in Rain Light Rain
8:53 PM 53.1 °F - 50.0 °F 89% 29.81 in 5.0 mi SW 12.7 mph 27.6 mph 0.01 in Rain Light Rain
10:53 PM 53.1 °F - 50.0 °F 89% 29.78 in 8.0 mi SW 9.2 mph 18.4 mph 0.00 in   Overcast
11:53 PM 53.1 °F - 50.0 °F 89% 29.76 in 8.0 mi SW 6.9 mph 17.3 mph N/A   Overcast